^^

..:: Storico WU ::..




Lo storico viene creato da WUnderground con i dati che la stazione Meteomincio invia al loro server. L' aggiornamento viene fatto ogni 5 minuti circa, tuttavia possono esserci intervalli pił ampi a causa di errori, interruzioni di servizio o problemi nell' invio tramite FTP.


Storico stazione MeteoMincio
Giorno Sommario per Febbario 02, 2022 Unità:  Inglese    Metrico   Entrambi
Giorno Settimana Mese Anno
  Max: Min: Media:
Temperatura: 62.6 °F 32 °F 45 °F
Dew Point: 41 °F 26.6 °F 34.2 °F
Umidità: 92% 39% 68%
Velocità vento: 9.3mph 0mph 3.9mph
Raffica: 11.8mph - -
Direzione- - SSW
Pressione: 30 in 29.8 in -
Precipitazioni: 0 in    
 
 
Tabulato Dati per Febbario 02, 2022
Ora Temperatura Dew Point Pressione Direzione Velocità vento Raffica Umidità Intensità pioggia (oraria) Info solare Situazione
00:04 41 °F 28.4 °F 29.9 in West 8.7 mph 11.8 mph 61% 0 in 0.00 W/m2 unknown
00:09 41 °F 28.4 °F 29.9 in West 7.5 mph 11.8 mph 60% 0 in 0.00 W/m2 unknown
00:14 41 °F 28.4 °F 29.9 in West 7.5 mph 10.6 mph 60% 0 in 0.00 W/m2 unknown
00:19 41 °F 28.4 °F 29.9 in WNW 8.1 mph 10.6 mph 60% 0 in 0.00 W/m2 unknown
00:24 41 °F 28.4 °F 29.9 in NW 8.1 mph 10.6 mph 60% 0 in 0.00 W/m2 unknown
00:29 41 °F 28.4 °F 29.9 in WNW 6.2 mph 9.9 mph 60% 0 in 0.00 W/m2 unknown
00:34 41 °F 28.4 °F 29.9 in WNW 6.2 mph 8.7 mph 61% 0 in 0.00 W/m2 unknown
00:39 41 °F 28.4 °F 29.9 in WNW 6.2 mph 9.3 mph 62% 0 in 0.00 W/m2 unknown
00:44 41 °F 28.4 °F 29.9 in WNW 6.2 mph 9.3 mph 62% 0 in 0.00 W/m2 unknown
00:49 41 °F 28.4 °F 29.9 in WNW 6.2 mph 8.7 mph 62% 0 in 0.00 W/m2 unknown
00:54 41 °F 28.4 °F 29.9 in WNW 6.2 mph 6.8 mph 62% 0 in 0.00 W/m2 unknown
00:59 41 °F 28.4 °F 29.9 in West 5 mph 6.8 mph 62% 0 in 0.00 W/m2 unknown
01:04 39.2 °F 28.4 °F 29.9 in West 5.6 mph 6.8 mph 63% 0 in 0.00 W/m2 unknown
01:09 39.2 °F 26.6 °F 29.9 in West 6.2 mph 6.8 mph 64% 0 in 0.00 W/m2 unknown
01:14 39.2 °F 28.4 °F 29.9 in WSW 5.6 mph 8.7 mph 65% 0 in 0.00 W/m2 unknown
01:19 39.2 °F 28.4 °F 29.9 in West 6.8 mph 9.3 mph 64% 0 in 0.00 W/m2 unknown
01:24 39.2 °F 28.4 °F 29.9 in West 8.1 mph 10.6 mph 64% 0 in 0.00 W/m2 unknown
01:29 41 °F 26.6 °F 29.9 in West 8.1 mph 10.6 mph 61% 0 in 0.00 W/m2 unknown
01:34 41 °F 26.6 °F 29.9 in West 6.8 mph 9.9 mph 59% 0 in 0.00 W/m2 unknown
01:39 41 °F 26.6 °F 29.9 in West 8.1 mph 11.8 mph 58% 0 in 0.00 W/m2 unknown
01:44 42.8 °F 26.6 °F 29.9 in WNW 8.7 mph 11.8 mph 56% 0 in 0.00 W/m2 unknown
01:49 42.8 °F 26.6 °F 29.8 in West 8.1 mph 11.8 mph 56% 0 in 0.00 W/m2 unknown
01:54 41 °F 26.6 °F 29.8 in West 8.7 mph 11.8 mph 56% 0 in 0.00 W/m2 unknown
01:59 42.8 °F 26.6 °F 29.8 in WNW 8.7 mph 11.8 mph 55% 0 in 0.00 W/m2 unknown
02:04 42.8 °F 26.6 °F 29.8 in WNW 8.7 mph 11.8 mph 53% 0 in 0.00 W/m2 unknown
02:09 42.8 °F 26.6 °F 29.8 in WNW 8.7 mph 11.8 mph 52% 0 in 0.00 W/m2 unknown
02:14 42.8 °F 26.6 °F 29.8 in WNW 6.8 mph 11.8 mph 54% 0 in 0.00 W/m2 unknown
02:19 42.8 °F 26.6 °F 29.8 in WNW 6.8 mph 8.1 mph 57% 0 in 0.00 W/m2 unknown
02:24 41 °F 26.6 °F 29.8 in WNW 5.6 mph 6.8 mph 58% 0 in 0.00 W/m2 unknown
02:29 41 °F 26.6 °F 29.8 in WNW 6.8 mph 8.1 mph 59% 0 in 0.00 W/m2 unknown
02:34 39.2 °F 26.6 °F 29.8 in WNW 6.8 mph 8.1 mph 60% 0 in 0.00 W/m2 unknown
02:39 39.2 °F 26.6 °F 29.8 in West 6.8 mph 9.9 mph 63% 0 in 0.00 W/m2 unknown
02:44 37.4 °F 26.6 °F 29.8 in West 7.5 mph 10.6 mph 64% 0 in 0.00 W/m2 unknown
02:49 39.2 °F 26.6 °F 29.8 in WNW 7.5 mph 10.6 mph 63% 0 in 0.00 W/m2 unknown
02:54 39.2 °F 26.6 °F 29.8 in WNW 6.8 mph 9.9 mph 60% 0 in 0.00 W/m2 unknown
02:59 39.2 °F 26.6 °F 29.8 in NW 5 mph 8.1 mph 60% 0 in 0.00 W/m2 unknown
03:04 39.2 °F 26.6 °F 29.8 in NW 5 mph 6.8 mph 61% 0 in 0.00 W/m2 unknown
03:09 39.2 °F 26.6 °F 29.8 in NNW 3.1 mph 6.8 mph 63% 0 in 0.00 W/m2 unknown
03:14 37.4 °F 26.6 °F 29.8 in NNW 4.3 mph 6.8 mph 64% 0 in 0.00 W/m2 unknown
03:19 37.4 °F 26.6 °F 29.8 in North 5 mph 6.8 mph 64% 0 in 0.00 W/m2 unknown
03:24 37.4 °F 26.6 °F 29.8 in NNW 5 mph 6.8 mph 64% 0 in 0.00 W/m2 unknown
03:29 39.2 °F 26.6 °F 29.8 in NNW 5 mph 6.8 mph 63% 0 in 0.00 W/m2 unknown
03:34 39.2 °F 26.6 °F 29.8 in NNW 5.6 mph 8.1 mph 63% 0 in 0.00 W/m2 unknown
03:39 41 °F 26.6 °F 29.8 in NW 5.6 mph 8.1 mph 61% 0 in 0.00 W/m2 unknown
03:44 41 °F 26.6 °F 29.8 in NW 5 mph 8.1 mph 58% 0 in 0.00 W/m2 unknown
03:49 41 °F 26.6 °F 29.8 in NW 3.1 mph 6.8 mph 59% 0 in 0.00 W/m2 unknown
03:54 39.2 °F 26.6 °F 29.8 in NNW 3.1 mph 5 mph 60% 0 in 0.00 W/m2 unknown
03:59 39.2 °F 26.6 °F 29.8 in North 1.2 mph 3.7 mph 66% 0 in 0.00 W/m2 unknown
04:04 37.4 °F 26.6 °F 29.9 in East 2.5 mph 3.7 mph 69% 0 in 0.00 W/m2 unknown
04:09 35.6 °F 26.6 °F 29.9 in East 3.1 mph 5 mph 71% 0 in 0.00 W/m2 unknown
04:14 35.6 °F 26.6 °F 29.8 in East 2.5 mph 5 mph 72% 0 in 0.00 W/m2 unknown
04:19 33.8 °F 26.6 °F 29.8 in East 1.2 mph 3.1 mph 73% 0 in 0.00 W/m2 unknown
04:24 33.8 °F 26.6 °F 29.8 in East 1.2 mph 2.5 mph 74% 0 in 0.00 W/m2 unknown
04:29 33.8 °F 26.6 °F 29.8 in Calm   1.9 mph 75% 0 in 0.00 W/m2 unknown
04:34 33.8 °F 26.6 °F 29.8 in Calm     75% 0 in 0.00 W/m2 unknown
04:39 33.8 °F 26.6 °F 29.8 in Calm     74% 0 in 0.00 W/m2 unknown
04:44 33.8 °F 26.6 °F 29.8 in NW 0.6 mph 3.7 mph 75% 0 in 0.00 W/m2 unknown
04:49 33.8 °F 26.6 °F 29.8 in NW 2.5 mph 3.7 mph 75% 0 in 0.00 W/m2 unknown
04:54 35.6 °F 26.6 °F 29.8 in WNW 4.3 mph 6.2 mph 74% 0 in 0.00 W/m2 unknown
04:59 37.4 °F 28.4 °F 29.8 in NW 3.7 mph 6.2 mph 73% 0 in 0.00 W/m2 unknown
05:04 37.4 °F 28.4 °F 29.8 in NW 4.3 mph 6.2 mph 70% 0 in 0.00 W/m2 unknown
05:09 39.2 °F 28.4 °F 29.8 in WNW 5.6 mph 6.2 mph 69% 0 in 0.00 W/m2 unknown
05:14 39.2 °F 28.4 °F 29.8 in WNW 5 mph 6.2 mph 66% 0 in 0.00 W/m2 unknown
05:19 41 °F 28.4 °F 29.8 in WNW 5 mph 6.2 mph 62% 0 in 0.00 W/m2 unknown
05:24 41 °F 28.4 °F 29.8 in NW 3.7 mph 5 mph 62% 0 in 0.00 W/m2 unknown
05:29 39.2 °F 28.4 °F 29.8 in NNW 1.2 mph 5 mph 63% 0 in 0.00 W/m2 unknown
05:34 39.2 °F 28.4 °F 29.8 in NNW 1.2 mph 2.5 mph 66% 0 in 0.00 W/m2 unknown
05:39 37.4 °F 28.4 °F 29.8 in NW 1.9 mph 3.7 mph 69% 0 in 0.00 W/m2 unknown
05:44 37.4 °F 28.4 °F 29.8 in NNW 2.5 mph 3.7 mph 70% 0 in 0.00 W/m2 unknown
05:49 37.4 °F 26.6 °F 29.8 in NNW 2.5 mph 3.7 mph 69% 0 in 0.00 W/m2 unknown
05:54 37.4 °F 26.6 °F 29.8 in NNE 3.1 mph 3.7 mph 70% 0 in 0.00 W/m2 unknown
05:59 35.6 °F 26.6 °F 29.8 in NE 3.1 mph 3.7 mph 73% 0 in 0.00 W/m2 unknown
06:04 35.6 °F 26.6 °F 29.8 in NNE 2.5 mph 3.7 mph 74% 0 in 0.00 W/m2 unknown
06:09 35.6 °F 28.4 °F 29.8 in North 1.9 mph 3.7 mph 75% 0 in 0.00 W/m2 unknown
06:14 35.6 °F 28.4 °F 29.8 in Calm   3.1 mph 76% 0 in 0.00 W/m2 unknown
06:19 35.6 °F 28.4 °F 29.8 in Calm     77% 0 in 0.00 W/m2 unknown
06:24 33.8 °F 28.4 °F 29.8 in Calm     78% 0 in 0.00 W/m2 unknown
06:29 33.8 °F 28.4 °F 29.8 in Calm     78% 0 in 0.00 W/m2 unknown
06:34 33.8 °F 28.4 °F 29.8 in Calm     79% 0 in 0.00 W/m2 unknown
06:39 33.8 °F 28.4 °F 29.8 in NNE 3.1 mph 3.7 mph 80% 0 in 0.00 W/m2 unknown
06:44 33.8 °F 28.4 °F 29.8 in North 3.1 mph 3.7 mph 80% 0 in 0.00 W/m2 unknown
06:49 33.8 °F 28.4 °F 29.8 in NNW 1.9 mph 3.7 mph 80% 0 in 0.00 W/m2 unknown
06:54 33.8 °F 28.4 °F 29.8 in North 3.1 mph 3.7 mph 80% 0 in 0.00 W/m2 unknown
06:59 35.6 °F 28.4 °F 29.8 in North 3.1 mph 3.7 mph 80% 0 in 0.00 W/m2 unknown
07:04 35.6 °F 28.4 °F 29.8 in West 4.3 mph 5 mph 78% 0 in 0.00 W/m2 unknown
07:09 33.8 °F 26.6 °F 29.8 in WNW 1.9 mph 5 mph 79% 0 in 0.00 W/m2 unknown
07:14 33.8 °F 28.4 °F 29.8 in WNW 1.9 mph 3.7 mph 84% 0 in 0.00 W/m2 unknown
07:19 33.8 °F 26.6 °F 29.8 in WNW 1.9 mph 3.1 mph 79% 0 in 0.00 W/m2 unknown
07:24 33.8 °F 26.6 °F 29.8 in WNW 1.2 mph 2.5 mph 79% 0 in 0.00 W/m2 unknown
07:29 32 °F 26.6 °F 29.8 in WNW 2.5 mph 3.7 mph 79% 0 in 0.00 W/m2 unknown
07:34 32 °F 26.6 °F 29.9 in NW 1.9 mph 3.7 mph 80% 0 in 0.00 W/m2 unknown
07:39 32 °F 26.6 °F 29.9 in North 1.9 mph 3.1 mph 80% 0 in 5.00 W/m2 unknown
07:44 32 °F 26.6 °F 29.9 in North 1.9 mph 3.7 mph 80% 0 in 5.00 W/m2 unknown
07:49 32 °F 26.6 °F 29.9 in North 1.9 mph 3.1 mph 80% 0 in 7.00 W/m2 unknown
07:54 32 °F 26.6 °F 29.9 in ENE 3.1 mph 3.7 mph 80% 0 in 9.00 W/m2 unknown
07:59 32 °F 26.6 °F 29.9 in ENE 3.7 mph 6.2 mph 81% 0 in 12.00 W/m2 unknown
08:04 32 °F 26.6 °F 29.9 in ENE 2.5 mph 6.2 mph 83% 0 in 14.00 W/m2 unknown
08:09 32 °F 28.4 °F 29.9 in East 3.1 mph 3.7 mph 84% 0 in 18.00 W/m2 unknown
08:14 32 °F 28.4 °F 29.9 in East 2.5 mph 3.7 mph 84% 0 in 19.00 W/m2 unknown
08:19 32 °F 28.4 °F 29.9 in East 1.9 mph 3.1 mph 83% 0 in 21.00 W/m2 unknown
08:24 33.8 °F 28.4 °F 29.9 in East 2.5 mph 3.7 mph 83% 0 in 23.00 W/m2 unknown
08:29 33.8 °F 28.4 °F 29.9 in East 3.1 mph 5 mph 82% 0 in 62.00 W/m2 unknown
08:34 33.8 °F 28.4 °F 29.9 in East 1.2 mph 5 mph 81% 0 in 76.00 W/m2 unknown
08:39 35.6 °F 30.2 °F 29.9 in SE 1.9 mph 2.5 mph 80% 0 in 84.00 W/m2 unknown
08:44 35.6 °F 30.2 °F 29.9 in SE 1.9 mph 2.5 mph 79% 0 in 102.00 W/m2 unknown
08:49 37.4 °F 32 °F 29.9 in SE 1.9 mph 3.7 mph 83% 0 in 116.00 W/m2 unknown
08:54 39.2 °F 35.6 °F 29.9 in SE 5 mph 6.8 mph 85% 0 in 132.00 W/m2 unknown
08:59 41 °F 35.6 °F 29.9 in ESE 5.6 mph 6.8 mph 85% 0 in 144.00 W/m2 unknown
09:04 41 °F 35.6 °F 29.9 in ESE 3.7 mph 6.8 mph 84% 0 in 160.00 W/m2 unknown
09:09 41 °F 37.4 °F 29.9 in ESE 2.5 mph 6.8 mph 84% 0 in 174.00 W/m2 unknown
09:14 41 °F 37.4 °F 29.9 in ESE 4.3 mph 5 mph 83% 0 in 188.00 W/m2 unknown
09:19 41 °F 37.4 °F 29.9 in ESE 5.6 mph 6.8 mph 82% 0 in 200.00 W/m2 unknown
09:24 42.8 °F 37.4 °F 29.9 in SE 6.2 mph 8.1 mph 82% 0 in 216.00 W/m2 unknown
09:29 42.8 °F 37.4 °F 29.9 in ESE 3.7 mph 8.1 mph 82% 0 in 229.00 W/m2 unknown
09:34 42.8 °F 37.4 °F 29.9 in SE 3.7 mph 6.2 mph 81% 0 in 237.00 W/m2 unknown
09:39 44.6 °F 37.4 °F 29.9 in SSE 4.3 mph 6.2 mph 79% 0 in 246.00 W/m2 unknown
09:44 44.6 °F 37.4 °F 29.9 in SE 3.1 mph 6.2 mph 78% 0 in 260.00 W/m2 unknown
09:49 44.6 °F 37.4 °F 29.9 in South 2.5 mph 3.7 mph 78% 0 in 271.00 W/m2 unknown
09:54 44.6 °F 37.4 °F 29.9 in South 3.7 mph 5 mph 78% 0 in 281.00 W/m2 unknown
09:59 44.6 °F 37.4 °F 29.9 in South 2.5 mph 5 mph 77% 0 in 292.00 W/m2 unknown
10:04 44.6 °F 37.4 °F 29.9 in South 3.7 mph 5 mph 77% 0 in 301.00 W/m2 unknown
10:09 44.6 °F 37.4 °F 29.9 in SSW 5 mph 6.2 mph 76% 0 in 309.00 W/m2 unknown
10:14 44.6 °F 37.4 °F 29.9 in SSW 5.6 mph 6.8 mph 76% 0 in 320.00 W/m2 unknown
10:19 44.6 °F 37.4 °F 29.9 in SSW 5 mph 6.8 mph 76% 0 in 332.00 W/m2 unknown
10:24 46.4 °F 39.2 °F 29.9 in South 5 mph 6.8 mph 76% 0 in 339.00 W/m2 unknown
10:29 46.4 °F 39.2 °F 29.9 in South 5.6 mph 6.8 mph 74% 0 in 350.00 W/m2 unknown
10:34 46.4 °F 37.4 °F 29.9 in South 4.3 mph 6.8 mph 73% 0 in 362.00 W/m2 unknown
10:39 46.4 °F 37.4 °F 29.9 in SSW 3.1 mph 5 mph 69% 0 in 367.00 W/m2 unknown
10:44 46.4 °F 37.4 °F 29.9 in SW 5 mph 6.2 mph 68% 0 in 374.00 W/m2 unknown
10:49 48.2 °F 37.4 °F 29.9 in SSW 3.1 mph 6.2 mph 68% 0 in 383.00 W/m2 unknown
10:54 48.2 °F 37.4 °F 29.9 in WSW 1.9 mph 3.7 mph 68% 0 in 390.00 W/m2 unknown
10:59 48.2 °F 37.4 °F 29.9 in SW 1.9 mph 3.7 mph 68% 0 in 397.00 W/m2 unknown
11:04 48.2 °F 37.4 °F 29.9 in WSW 3.1 mph 3.7 mph 67% 0 in 404.00 W/m2 unknown
11:09 48.2 °F 37.4 °F 29.9 in SW 3.7 mph 3.7 mph 64% 0 in 410.00 W/m2 unknown
11:14 50 °F 37.4 °F 29.9 in West 3.7 mph 5 mph 63% 0 in 417.00 W/m2 unknown
11:19 50 °F 37.4 °F 29.9 in West 3.1 mph 5 mph 63% 0 in 422.00 W/m2 unknown
11:24 50 °F 37.4 °F 29.9 in West 3.1 mph 3.7 mph 62% 0 in 427.00 W/m2 unknown
11:29 50 °F 37.4 °F 29.9 in West 4.3 mph 6.2 mph 62% 0 in 431.00 W/m2 unknown
11:34 51.8 °F 37.4 °F 29.9 in WNW 5.6 mph 8.1 mph 60% 0 in 439.00 W/m2 unknown
11:39 51.8 °F 35.6 °F 29.9 in WNW 8.1 mph 9.3 mph 56% 0 in 445.00 W/m2 unknown
11:44 51.8 °F 37.4 °F 29.9 in West 9.3 mph 10.6 mph 56% 0 in 448.00 W/m2 unknown
11:49 51.8 °F 37.4 °F 29.9 in WNW 6.2 mph 9.9 mph 56% 0 in 450.00 W/m2 unknown
11:54 53.6 °F 37.4 °F 29.9 in WNW 5 mph 8.1 mph 56% 0 in 454.00 W/m2 unknown
11:59 53.6 °F 37.4 °F 29.9 in NW 5.6 mph 6.8 mph 55% 0 in 457.00 W/m2 unknown
12:04 53.6 °F 37.4 °F 29.9 in NW 5 mph 6.8 mph 55% 0 in 461.00 W/m2 unknown
12:09 53.6 °F 37.4 °F 29.9 in WNW 5 mph 8.1 mph 54% 0 in 464.00 W/m2 unknown
12:14 53.6 °F 37.4 °F 29.9 in NW 5.6 mph 8.1 mph 54% 0 in 466.00 W/m2 unknown
12:19 53.6 °F 37.4 °F 29.9 in NW 3.7 mph 8.1 mph 54% 0 in 466.00 W/m2 unknown
12:24 55.4 °F 39.2 °F 29.9 in NW 5.6 mph 8.1 mph 56% 0 in 468.00 W/m2 unknown
12:29 53.6 °F 37.4 °F 29.9 in North 4.3 mph 8.1 mph 55% 0 in 468.00 W/m2 unknown
12:34 55.4 °F 39.2 °F 29.9 in NNW 5 mph 6.8 mph 56% 0 in 468.00 W/m2 unknown
12:39 55.4 °F 39.2 °F 29.9 in NNW 5 mph 6.8 mph 56% 0 in 469.00 W/m2 unknown
12:44 55.4 °F 39.2 °F 29.9 in NW 5 mph 6.8 mph 54% 0 in 471.00 W/m2 unknown
12:49 55.4 °F 39.2 °F 29.9 in NW 5 mph 6.8 mph 54% 0 in 469.00 W/m2 unknown
12:54 55.4 °F 39.2 °F 29.9 in WNW 5 mph 6.8 mph 54% 0 in 469.00 W/m2 unknown
12:59 55.4 °F 39.2 °F 29.9 in NW 5 mph 6.2 mph 53% 0 in 469.00 W/m2 unknown
13:04 55.4 °F 39.2 °F 29.9 in NW 5.6 mph 6.8 mph 54% 0 in 468.00 W/m2 unknown
13:09 55.4 °F 39.2 °F 29.9 in NW 5 mph 6.8 mph 53% 0 in 468.00 W/m2 unknown
13:14 57.2 °F 39.2 °F 29.9 in NW 3.7 mph 6.8 mph 52% 0 in 466.00 W/m2 unknown
13:19 57.2 °F 39.2 °F 29.9 in NNW 5 mph 8.1 mph 54% 0 in 464.00 W/m2 unknown
13:24 57.2 °F 39.2 °F 29.9 in NNW 5.6 mph 8.1 mph 53% 0 in 459.00 W/m2 unknown
13:29 57.2 °F 39.2 °F 29.9 in NNW 5.6 mph 8.1 mph 52% 0 in 455.00 W/m2 unknown
13:34 57.2 °F 39.2 °F 29.9 in NW 5 mph 6.8 mph 53% 0 in 452.00 W/m2 unknown
13:39 57.2 °F 41 °F 29.9 in NNW 6.2 mph 6.8 mph 53% 0 in 450.00 W/m2 unknown
13:44 57.2 °F 39.2 °F 29.9 in NW 5.6 mph 6.8 mph 52% 0 in 445.00 W/m2 unknown
13:49 57.2 °F 41 °F 29.9 in North 6.2 mph 8.7 mph 54% 0 in 441.00 W/m2 unknown
13:54 57.2 °F 41 °F 29.9 in NNW 5 mph 8.7 mph 53% 0 in 434.00 W/m2 unknown
13:59 59 °F 41 °F 29.9 in NNW 5.6 mph 6.8 mph 52% 0 in 429.00 W/m2 unknown
14:04 59 °F 41 °F 29.9 in North 5.6 mph 6.8 mph 52% 0 in 424.00 W/m2 unknown
14:09 57.2 °F 41 °F 29.9 in North 6.2 mph 6.8 mph 53% 0 in 417.00 W/m2 unknown
14:14 57.2 °F 41 °F 29.9 in North 5 mph 6.8 mph 52% 0 in 411.00 W/m2 unknown
14:19 59 °F 41 °F 29.9 in NNW 5 mph 8.1 mph 53% 0 in 404.00 W/m2 unknown
14:24 59 °F 41 °F 29.9 in North 5.6 mph 6.8 mph 51% 0 in 397.00 W/m2 unknown
14:29 59 °F 41 °F 29.9 in NNE 6.2 mph 8.1 mph 50% 0 in 390.00 W/m2 unknown
14:34 59 °F 41 °F 29.9 in NNE 6.2 mph 8.1 mph 50% 0 in 380.00 W/m2 unknown
14:39 59 °F 41 °F 29.9 in NNE 5 mph 8.1 mph 50% 0 in 373.00 W/m2 unknown
14:44 59 °F 41 °F 29.9 in NE 5.6 mph 6.8 mph 49% 0 in 364.00 W/m2 unknown
14:49 60.8 °F 39.2 °F 29.9 in NNE 4.3 mph 6.8 mph 48% 0 in 357.00 W/m2 unknown
14:54 60.8 °F 39.2 °F 29.9 in NNE 3.7 mph 5 mph 47% 0 in 346.00 W/m2 unknown
14:59 60.8 °F 39.2 °F 29.9 in NNE 3.7 mph 5 mph 47% 0 in 338.00 W/m2 unknown
15:04 60.8 °F 39.2 °F 29.9 in NE 1.9 mph 5 mph 46% 0 in 327.00 W/m2 unknown
15:09 62.6 °F 39.2 °F 29.9 in NNW 1.9 mph 3.7 mph 46% 0 in 316.00 W/m2 unknown
15:14 62.6 °F 39.2 °F 29.9 in NNW 3.7 mph 5 mph 44% 0 in 308.00 W/m2 unknown
15:19 62.6 °F 39.2 °F 29.9 in NNW 3.7 mph 5 mph 43% 0 in 299.00 W/m2 unknown
15:24 62.6 °F 39.2 °F 29.9 in NW 3.1 mph 5 mph 42% 0 in 290.00 W/m2 unknown
15:29 62.6 °F 39.2 °F 29.9 in NW 3.7 mph 5 mph 41% 0 in 279.00 W/m2 unknown
15:34 62.6 °F 39.2 °F 29.9 in WNW 4.3 mph 6.2 mph 41% 0 in 267.00 W/m2 unknown
15:39 62.6 °F 37.4 °F 29.9 in WNW 5.6 mph 6.2 mph 39% 0 in 258.00 W/m2 unknown
15:44 62.6 °F 39.2 °F 29.9 in North 3.7 mph 6.2 mph 43% 0 in 246.00 W/m2 unknown
15:49 62.6 °F 41 °F 29.9 in ENE 5 mph 8.1 mph 46% 0 in 232.00 W/m2 unknown
15:54 60.8 °F 41 °F 29.9 in ESE 5.6 mph 8.1 mph 49% 0 in 218.00 W/m2 unknown
15:59 60.8 °F 41 °F 29.9 in ESE 2.5 mph 8.1 mph 49% 0 in 206.00 W/m2 unknown
16:04 60.8 °F 41 °F 29.9 in SSE 2.5 mph 3.7 mph 50% 0 in 190.00 W/m2 unknown
16:09 59 °F 41 °F 29.9 in SSE 1.9 mph 3.7 mph 50% 0 in 176.00 W/m2 unknown
16:14 59 °F 41 °F 29.9 in SSW 2.5 mph 3.7 mph 49% 0 in 162.00 W/m2 unknown
16:19 59 °F 41 °F 29.9 in SSW 2.5 mph 3.7 mph 49% 0 in 137.00 W/m2 unknown
16:24 59 °F 41 °F 29.9 in SE 3.1 mph 3.7 mph 51% 0 in 130.00 W/m2 unknown
16:29 59 °F 41 °F 29.9 in ESE 6.8 mph 10.6 mph 51% 0 in 105.00 W/m2 unknown
16:34 59 °F 41 °F 29.9 in ESE 3.1 mph 9.9 mph 51% 0 in 28.00 W/m2 unknown
16:39 59 °F 41 °F 29.9 in ESE 3.1 mph 3.7 mph 51% 0 in 26.00 W/m2 unknown
16:44 59 °F 41 °F 29.9 in ESE 3.1 mph 3.7 mph 52% 0 in 25.00 W/m2 unknown
16:49 57.2 °F 41 °F 29.9 in ESE 3.1 mph 3.7 mph 53% 0 in 23.00 W/m2 unknown
16:54 57.2 °F 41 °F 29.9 in ESE 3.1 mph 3.7 mph 53% 0 in 21.00 W/m2 unknown
16:59 57.2 °F 41 °F 29.9 in ENE 3.1 mph 3.7 mph 54% 0 in 19.00 W/m2 unknown
17:04 57.2 °F 41 °F 29.9 in East 3.7 mph 5 mph 54% 0 in 16.00 W/m2 unknown
17:09 57.2 °F 41 °F 29.9 in ENE 2.5 mph 5 mph 56% 0 in 14.00 W/m2 unknown
17:14 55.4 °F 41 °F 29.9 in ENE 1.2 mph 3.1 mph 58% 0 in 12.00 W/m2 unknown
17:19 55.4 °F 41 °F 29.9 in Calm   1.2 mph 59% 0 in 9.00 W/m2 unknown
17:24 53.6 °F 41 °F 29.9 in Calm     60% 0 in 7.00 W/m2 unknown
17:29 53.6 °F 41 °F 29.9 in ENE 1.9 mph 2.5 mph 63% 0 in 0.00 W/m2 unknown
17:34 53.6 °F 41 °F 29.9 in ENE 1.9 mph 3.7 mph 65% 0 in 0.00 W/m2 unknown
17:39 51.8 °F 41 °F 29.9 in ENE 2.5 mph 3.7 mph 66% 0 in 0.00 W/m2 unknown
17:44 51.8 °F 39.2 °F 29.9 in ENE 2.5 mph 3.7 mph 66% 0 in 0.00 W/m2 unknown
17:49 51.8 °F 39.2 °F 29.9 in ENE 1.9 mph 3.7 mph 66% 0 in 0.00 W/m2 unknown
17:54 51.8 °F 39.2 °F 29.9 in ENE 3.7 mph 3.7 mph 66% 0 in 0.00 W/m2 unknown
17:59 50 °F 39.2 °F 29.9 in NE 3.1 mph 3.7 mph 67% 0 in 0.00 W/m2 unknown
18:04 50 °F 39.2 °F 29.9 in NNE 2.5 mph 3.7 mph 67% 0 in 0.00 W/m2 unknown
18:09 50 °F 39.2 °F 29.9 in NE 4.3 mph 5 mph 67% 0 in 0.00 W/m2 unknown
18:14 50 °F 39.2 °F 29.9 in NE 4.3 mph 6.8 mph 67% 0 in 0.00 W/m2 unknown
18:19 50 °F 39.2 °F 29.9 in NE 6.8 mph 8.7 mph 66% 0 in 0.00 W/m2 unknown
18:24 51.8 °F 39.2 °F 29.9 in ENE 7.5 mph 10.6 mph 64% 0 in 0.00 W/m2 unknown
18:29 51.8 °F 39.2 °F 29.9 in ENE 6.2 mph 9.9 mph 64% 0 in 0.00 W/m2 unknown
18:34 51.8 °F 39.2 °F 29.9 in ENE 6.2 mph 9.3 mph 65% 0 in 0.00 W/m2 unknown
18:39 50 °F 39.2 °F 29.9 in ENE 7.5 mph 9.9 mph 65% 0 in 0.00 W/m2 unknown
18:44 50 °F 39.2 °F 29.9 in ENE 7.5 mph 10.6 mph 67% 0 in 0.00 W/m2 unknown
18:49 50 °F 39.2 °F 29.9 in ENE 6.8 mph 9.9 mph 67% 0 in 0.00 W/m2 unknown
18:54 48.2 °F 39.2 °F 29.9 in East 6.2 mph 8.1 mph 68% 0 in 0.00 W/m2 unknown
18:59 48.2 °F 39.2 °F 29.9 in ENE 5 mph 6.8 mph 69% 0 in 0.00 W/m2 unknown
19:04 48.2 °F 39.2 °F 29.9 in ENE 5 mph 6.8 mph 69% 0 in 0.00 W/m2 unknown
19:09 48.2 °F 39.2 °F 29.9 in East 5 mph 6.8 mph 70% 0 in 0.00 W/m2 unknown
19:14 48.2 °F 39.2 °F 29.9 in East 5 mph 6.8 mph 70% 0 in 0.00 W/m2 unknown
19:19 48.2 °F 37.4 °F 29.9 in East 3.7 mph 6.8 mph 72% 0 in 0.00 W/m2 unknown
19:24 46.4 °F 39.2 °F 29.9 in East 3.1 mph 5 mph 72% 0 in 0.00 W/m2 unknown
19:29 46.4 °F 37.4 °F 30 in East 1.2 mph 5 mph 73% 0 in 0.00 W/m2 unknown
19:34 46.4 °F 37.4 °F 30 in NE 1.9 mph 3.7 mph 74% 0 in 0.00 W/m2 unknown
19:39 44.6 °F 37.4 °F 30 in NE 1.9 mph 3.1 mph 75% 0 in 0.00 W/m2 unknown
19:44 44.6 °F 37.4 °F 30 in NNE 1.9 mph 2.5 mph 75% 0 in 0.00 W/m2 unknown
19:49 44.6 °F 37.4 °F 30 in NNE 1.9 mph 3.1 mph 77% 0 in 0.00 W/m2 unknown
19:54 44.6 °F 37.4 °F 30 in NE 2.5 mph 3.7 mph 77% 0 in 0.00 W/m2 unknown
19:59 44.6 °F 37.4 °F 30 in ENE 1.9 mph 3.7 mph 77% 0 in 0.00 W/m2 unknown
20:04 44.6 °F 37.4 °F 30 in ENE 4.3 mph 5 mph 77% 0 in 0.00 W/m2 unknown
20:09 44.6 °F 37.4 °F 30 in ENE 5 mph 5 mph 77% 0 in 0.00 W/m2 unknown
20:14 44.6 °F 37.4 °F 30 in NE 2.5 mph 3.1 mph 78% 0 in 0.00 W/m2 unknown
20:19 44.6 °F 37.4 °F 30 in NE 3.7 mph 5 mph 78% 0 in 0.00 W/m2 unknown
20:24 44.6 °F 37.4 °F 30 in NE 4.3 mph 5 mph 78% 0 in 0.00 W/m2 unknown
20:29 44.6 °F 37.4 °F 30 in NE 3.7 mph 5 mph 77% 0 in 0.00 W/m2 unknown
20:34 44.6 °F 37.4 °F 30 in NE 3.7 mph 5 mph 77% 0 in 0.00 W/m2 unknown
20:39 44.6 °F 37.4 °F 30 in NE 3.7 mph 5 mph 77% 0 in 0.00 W/m2 unknown
20:44 44.6 °F 37.4 °F 30 in NE 4.3 mph 5 mph 77% 0 in 0.00 W/m2 unknown
20:49 44.6 °F 37.4 °F 30 in NNE 4.3 mph 5 mph 77% 0 in 0.00 W/m2 unknown
20:54 44.6 °F 37.4 °F 30 in NNE 2.5 mph 5 mph 78% 0 in 0.00 W/m2 unknown
20:59 44.6 °F 37.4 °F 30 in NE 1.2 mph 3.1 mph 79% 0 in 0.00 W/m2 unknown
21:04 42.8 °F 37.4 °F 30 in NE 1.2 mph 1.9 mph 80% 0 in 0.00 W/m2 unknown
21:09 41 °F 35.6 °F 30 in North 1.2 mph 3.1 mph 81% 0 in 0.00 W/m2 unknown
21:14 41 °F 35.6 °F 30 in North 1.9 mph 3.7 mph 82% 0 in 0.00 W/m2 unknown
21:19 41 °F 35.6 °F 30 in West 3.1 mph 3.7 mph 81% 0 in 0.00 W/m2 unknown
21:24 39.2 °F 33.8 °F 30 in WNW 3.1 mph 3.7 mph 83% 0 in 0.00 W/m2 unknown
21:29 39.2 °F 33.8 °F 30 in NW 2.5 mph 3.7 mph 84% 0 in 0.00 W/m2 unknown
21:34 39.2 °F 35.6 °F 30 in NNW 2.5 mph 3.7 mph 84% 0 in 0.00 W/m2 unknown
21:39 39.2 °F 35.6 °F 30 in NNW 1.9 mph 3.7 mph 84% 0 in 0.00 W/m2 unknown
21:44 39.2 °F 35.6 °F 30 in NNW 3.1 mph 3.7 mph 83% 0 in 0.00 W/m2 unknown
21:49 39.2 °F 35.6 °F 30 in North 3.1 mph 3.7 mph 84% 0 in 0.00 W/m2 unknown
21:54 39.2 °F 35.6 °F 30 in North 2.5 mph 3.7 mph 84% 0 in 0.00 W/m2 unknown
21:59 39.2 °F 35.6 °F 30 in NNW 3.1 mph 3.7 mph 84% 0 in 0.00 W/m2 unknown
22:04 39.2 °F 35.6 °F 30 in North 3.1 mph 3.7 mph 84% 0 in 0.00 W/m2 unknown
22:09 39.2 °F 35.6 °F 30 in NNW 3.1 mph 3.7 mph 84% 0 in 0.00 W/m2 unknown
22:14 39.2 °F 35.6 °F 30 in North 3.1 mph 3.7 mph 84% 0 in 0.00 W/m2 unknown
22:19 39.2 °F 33.8 °F 30 in North 2.5 mph 3.7 mph 84% 0 in 0.00 W/m2 unknown
22:24 39.2 °F 33.8 °F 30 in NNW 3.1 mph 3.7 mph 84% 0 in 0.00 W/m2 unknown
22:29 39.2 °F 35.6 °F 30 in North 3.1 mph 3.7 mph 86% 0 in 0.00 W/m2 unknown
22:34 39.2 °F 35.6 °F 30 in North 2.5 mph 3.7 mph 85% 0 in 0.00 W/m2 unknown
22:39 39.2 °F 35.6 °F 30 in NNE 1.9 mph 3.7 mph 84% 0 in 0.00 W/m2 unknown
22:44 39.2 °F 33.8 °F 30 in NNE 1.9 mph 3.1 mph 84% 0 in 0.00 W/m2 unknown
22:49 39.2 °F 33.8 °F 30 in NNE 1.2 mph 2.5 mph 84% 0 in 0.00 W/m2 unknown
22:54 37.4 °F 33.8 °F 30 in NNW 1.2 mph 2.5 mph 85% 0 in 0.00 W/m2 unknown
22:59 37.4 °F 33.8 °F 30 in NNW 2.5 mph 3.7 mph 85% 0 in 0.00 W/m2 unknown
23:04 37.4 °F 33.8 °F 30 in NW 2.5 mph 3.7 mph 85% 0 in 0.00 W/m2 unknown
23:09 37.4 °F 33.8 °F 30 in NW 2.5 mph 3.7 mph 86% 0 in 0.00 W/m2 unknown
23:14 37.4 °F 33.8 °F 30 in NW 2.5 mph 3.7 mph 86% 0 in 0.00 W/m2 unknown
23:19 37.4 °F 33.8 °F 30 in NW 1.9 mph 3.7 mph 86% 0 in 0.00 W/m2 unknown
23:24 37.4 °F 33.8 °F 30 in NW 1.9 mph 3.7 mph 86% 0 in 0.00 W/m2 unknown
23:29 37.4 °F 32 °F 30 in NW 1.2 mph 3.1 mph 85% 0 in 0.00 W/m2 unknown
23:34 35.6 °F 32 °F 30 in NW 1.9 mph 3.1 mph 86% 0 in 0.00 W/m2 unknown
23:39 35.6 °F 32 °F 30 in WNW 1.9 mph 3.7 mph 87% 0 in 0.00 W/m2 unknown
23:44 35.6 °F 32 °F 30 in NW 1.9 mph 3.1 mph 87% 0 in 0.00 W/m2 unknown
23:49 37.4 °F 33.8 °F 30 in NNE 2.5 mph 3.7 mph 92% 0 in 0.00 W/m2 unknown
23:54 37.4 °F 33.8 °F 30 in NNE 2.5 mph 3.7 mph 90% 0 in 0.00 W/m2 unknown
23:59 37.4 °F 33.8 °F 30 in NNE 2.5 mph 3.7 mph 87% 0 in 0.00 W/m2 unknown
Stazione Meteorologica MeteoMincio Rivalta s/M (MN)
Con i complimenti di Weather Underground - 4 mb



METEO PILLOLE
La temperatura più bassa in assoluto
Vostok - Antartide
il 21 luglio 1983 presso la stazione russa di Vostok 3420m slm venne registrata la temperatura esterna di -89,2° C.
Share

Non seguire questo link o sarai bannato dal sito!